STARLINK-5535, 56356

Orbit data source: Space-Track

STARLINK-5535, 56356 is a payload satellite owned by SpaceX/Seattle (US) in SSO that was launched on Thu, 27 Apr 2023 UTC via an FALCON 9 launch vehicle from the Air Force Western Test Range (AFWTR). Payload-class satellites include a variety of spacecraft equipped with specific instruments for various scientific and technological missions. These include communications satellites like Starlink; space stations such as the ISS; scientific satellites like the Hubble; Earth observation satellites from companies like Planet Labs, Umbra, and HawkEye 360; GPS; miniature CubeSats for education and research; and military/defense satellites.

Loading next visibility...
Identifier
56356, 2023-058AR
Orbit
SSO
Country
Flag of USUS
Related business
Manufacturer
SpaceX/Seattle
Mission
Operational Commercial Communications
Bus & Motor
STARLINK, Unknown motor
Mass
300 kg wet, ~260 kg dry
Launch date (UTC)
2023-04-27 (3 years ago)
Launch vehicle
FALCON 9
Launch site
Air Force Western Test Range (AFWTR)
Object type
Payload
Rocket body
Debris
Shape & HBR
Box + 1 Pan, 10.1 m
Radar Cross Section
11.087 m², Large (>1 m²)

Expand to show TLE details & history
Last TLE update: 2 days ago

TLE from 2 days ago
0 STARLINK-5535
1 56356U 23058AR  26170.95439165  .00000251  00000-0  21310-4 0  9990
2 56356  97.3363 170.9323 0001807  74.4182 285.7245 15.05657577173580
Epoch: 2026-06-19T22:54Z
TLE epoch observation values (Epoch: 2026-06-19T22:54:19.438Z)
Latitude
-0.00002°
Longitude
-80.82465°
Altitude
552.222 km
Speed
7.586 km/s
True Right ascension
11h 23m 43s
True Declination
0° 00' 00"
Sunlit
Object was in daylight at epoch
Visualization orbit readout
Latitude
Unknown
Longitude
Unknown
Altitude
Unknown
Speed
Unknown
Apparent Right ascension
Unknown
Apparent Declination
Unknown
Sunlit
N/A
Visualization observer readout
Local Sidereal Time
21:27:20
Azimuth
Unknown
Elevation
Unknown
Doppler factor
Unknown
Orbital elements
Apogee altitude
547.721 km
Perigee altitude
545.219 km
Semi-major axis
6,924.607 km
Eccentricity
0.00018
Inclination
97.3363°
RAAN
170.9323°
Arg. of periapsis
74.4182°
True anomaly
285.70457°
Mean anomaly
285.7245°
Eccentric anomaly
285.71453°
Mean motion
3.76661 °/min
Orbital period
95.58 mins
BSTAR
0.00002131
Loading maneuver chart data...
Computing Atmospheric mass density...
Loading historical data...
Loading historical data...
Loading historical data...
Loading historical data...
Loading historical data...
Loading historical data...
Loading historical data...

Documentation

Showing up to 5 results
|